Regional Weather Roundup
Issued by NWS

Home | Current Version | Previous Version | Graphics & Text | Print | Product List | Glossary Off
Versions: 1 2 3 4 5 6 7 8 9 10 11 12 13 14 15 16 17 18 19 20 21 22 23 24 25 26 27 28 29 30 31 32 33 34 35 36 37 38 39 40 41 42 43 44 45 46 47 48 49 50

000
ASUS43 KDMX 252301
RWRIA

WEATHER ROUNDUP FOR IOWA
NATIONAL WEATHER SERVICE DES MOINES IA
600 PM CDT WED APR 25 2018

NOTE: "FAIR" INDICATES FEW OR NO CLOUDS BELOW 12,000 FEET WITH NO
SIGNIFICANT WEATHER AND/OR OBSTRUCTIONS TO VISIBILITY.

* - THESE STATIONS ARE NOT NWS STATIONS...THUS NOT UNDER NWS
QUALITY CONTROL.  THEY ALSO DO NOT REPORT WEATHER SUCH
AS PRECIPITATION OR FOG.

IAZ001>003-012>014-020>022-031>034-043>046-260000-
   NORTHWEST IOWA

CITY           SKY/WX    TMP DP  RH WIND       PRES   REMARKS
CARROLL *      SUNNY     72  34  25 NE7       30.04F
CHEROKEE *     SUNNY     62  25  24 NE3       30.05F
DENISON *      SUNNY     63  25  23 E7        30.06F
LE MARS *      SUNNY     63  25  23 W8        30.06F
ORANGE CITY *  SUNNY     61  30  31 NW5       30.06F
SHELDON *      SUNNY     61  25  25 NW8       30.04F
SIOUX CITY     SUNNY     62  32  32 NW3       30.06F
SPENCER        SUNNY     61  24  24 NW3       30.06F
STORM LAKE *   SUNNY     61  25  25 NE8       30.05F
$$

IAZ055>058-069>071-079>083-090>094-260000-
   SOUTHWEST IOWA

CITY           SKY/WX    TMP DP  RH WIND       PRES   REMARKS
ATLANTIC *     SUNNY     63  27  25 NE7G13    30.04F
AUDUBON *      SUNNY     63  18  17 CALM      30.06S
CLARINDA *     PTSUNNY   59  37  44 W3        30.09F
COUNCIL BLFS * SUNNY     61  32  33 CALM      30.05F
CRESTON *      CLOUDY    59  32  36 NW7       30.06F
HARLAN  *      SUNNY     63  23  22 NE6       30.08F
LAMONI         PTSUNNY   58  34  40 NW7       30.05F
RED OAK *      MOSUNNY   61  37  41 CALM      30.06F
SHENANDOAH *   MOSUNNY   55  39  54 W6        30.08F
$$

IAZ047>049-059>061-072>074-084-260000-
   CENTRAL IOWA

CITY           SKY/WX    TMP DP  RH WIND       PRES   REMARKS
AMES           SUNNY     63  29  27 N7        30.03F
ANKENY *       SUNNY     64  25  22 CALM      30.04S
BOONE *        SUNNY     61  28  29 VRB5      30.03F
CHARITON *     CLOUDY    59  28  31 CALM      30.03F
DES MOINES     CLOUDY    66  26  22 NW6       30.03F
GRINNELL*      SUNNY     64  24  22 NE5       30.03F
KNOXVILLE *    PTSUNNY   64  23  20 CALM      30.01F
MARSHALLTOWN   SUNNY     63  29  27 N8        30.02F
NEWTON *       SUNNY     63  27  25 N7        30.02F
PELLA *        MOSUNNY   66  22  18 N7        30.03S
$$

IAZ004>006-015-016-023>025-035-036-260000-
   NORTH CENTRAL IOWA

CITY           SKY/WX    TMP DP  RH WIND       PRES   REMARKS
ALGONA *       SUNNY     57  32  38 N7        30.07S
CLARION *      SUNNY     57  32  38 VRB5      30.06S
ESTHERVILLE    SUNNY     56  34  43 CALM      30.06F
FORT DODGE *   SUNNY     60  31  33 N6        30.06F
MASON CITY     SUNNY     58  33  39 NW8       30.06F
FOREST CITY *  FAIR      55  34  44 NW7       30.06S
WEBSTER CITY * SUNNY     61  30  31 VRB6G14   30.03F
IOWA FALLS *   FAIR      61  32  33 N8        30.05F
$$

IAZ007>011-017>019-026>030-037>042-050>054-066-260000-
   NORTHEAST IOWA

CITY           SKY/WX    TMP DP  RH WIND       PRES   REMARKS
CEDAR RAPIDS   FAIR      65  29  25 N6        30.00F
CHARLES CITY * FAIR      59  34  38 NW9G15    30.04F
CLINTON *      FAIR      63  31  30 N7        30.01F
DECORAH *      FAIR      59  27  29 CALM      30.02F
DUBUQUE        FAIR      61  28  28 N6        30.01F
MONTICELLO *   FAIR      64  27  24 VRB6G12   30.01S
OELWEIN *      FAIR      61  30  31 N8G15     30.03F
WATERLOO       FAIR      62  29  28 N8        30.03F
$$

IAZ064-065-067-068-078-260000-
   EAST CENTRAL IOWA

CITY           SKY/WX    TMP DP  RH WIND       PRES   REMARKS
DAVENPORT      FAIR      63  28  26 N5        30.02F
IOWA CITY      FAIR      65  25  22 NW6       30.02F
MUSCATINE *    FAIR      66  27  22 NE6G13    30.01S
QUAD CITIES    FAIR      65  29  25 VRB5      29.99F
$$

IAZ062-063-075>077-085>089-095>099-260000-
   SOUTHEAST IOWA

CITY           SKY/WX    TMP DP  RH WIND       PRES   REMARKS
BURLINGTON     CLOUDY    62  34  35 S5        30.01F
FAIRFIELD *    PTSUNNY   64  28  25 VRB6      30.01F
FORT MADISON * CLOUDY    63  34  34 CALM      30.02F
KEOKUK *       PTSUNNY   61  37  41 CALM      30.02S
OSKALOOSA *    FAIR      63  26  24 N3        30.02S
CENTERVILLE *  FAIR      59  30  33 CALM      30.04F
OTTUMWA        CLOUDY    63  29  27 SE3       30.01F
WASHINGTON *   PTSUNNY   64  30  27 VRB3      30.02S
$$

ABBREVIATIONS USED IN REMARKS
   TC - TEMPERATURES IN CELSIUS
  WCI - WIND CHILL INDEX
   HX - HEAT INDEX
  VSB - VISIBILITY
$$





USA.gov is the U.S. government's official web portal to all federal, state and local government web resources and services.